User: anonymous   Login
Location: Noordwijk
(52.2400°N, 4.4500°E)
Time: 17:22:28
(UTC+00:00)
Language:

M-CUBED/EXP-1 PRIME - Orbit

View from above orbital plane
View from above orbital plane
View from above satellite
View from above satellite

Ground track
Ground track

The orbit data is extracted from the following two-line orbital elements,

1 37855U 11061F   22333.53140863  .00012885  00000-0  52043-3 0  9991
2 37855 101.7152 180.6859 0143681 286.6320  71.9163 15.16007902606688
Epoch (UTC): 29 November 2022 12:45:13
Eccentricity: 0.0143681
inclination: 101.7152°
perigee height: 419 km
apogee height: 617 km
right ascension of ascending node: 180.6859°
argument of perigee: 286.6320°
revolutions per day: 15.16007902
mean anomaly at epoch: 71.9163°
orbit number at epoch: 60668

The dashed part of the orbit path shows where the satellite is in the earth's shadow,  

DLR